Home   Weather   Ulm   Past weeks

Flag for Germany Past Weather in Ulm, Baden-Württemberg, Germany — Yesterday and Last 2 Weeks

54 °F

Partly cloudy.

Feels Like: 54 °F
Forecast: 47 / 57 °F
Wind: 1 mph from North

Location: Laupheim Airport

Current Time: Oct 24, 2016 at 8:29:03 PM

Latest Report: Oct 24, 2016 at 7:20 PM

Visibility: N/A

Pressure: 29.98 "Hg

Humidity: 100%

Dew Point: 54 °F

Location of UlmLocation

Past Weather in Ulm — Graph


Ulm Temperature Yesterday

Maximum temperature yesterday: 48 °F (at 5:20 PM)
Minimum temperature yesterday: 30 °F (at 5:20 AM)
Average temperature yesterday: 40 °F

High & Low Weather Summary for the Past Weeks

High63 °F (Oct 16, 3:20 PM)100% (Oct 10, 5:20 AM)30.24 "Hg (Oct 10, 5:20 AM)
Low30 °F (Oct 23, 5:20 AM)54% (Oct 12, 3:20 PM)29.68 "Hg (Oct 14, 5:20 PM)
Average45 °F87%30.03 "Hg
* Reported Oct 9 5:20 PM — Oct 24 5:20 PM, Ulm, Weather by CustomWeather, © 2016

Note: Actual official high and low records may vary slightly from our data, if they occured in-between our weather recording intervals... More about our weather records


Ulm Weather History for the Previous 24 Hours

Scroll right to see more
Time TempWeatherWind HumidityBarometerVisibility
5:20 PM
Mon, Oct 24
61 °FPartly sunny.1 mph77%29.95 "HgN/A
4:20 PM61 °FBroken clouds.3 mph83%29.95 "HgN/A
3:20 PM61 °FBroken clouds.3 mph83%29.95 "HgN/A
2:20 PM63 °FBroken clouds.2 mph73%29.95 "HgN/A
1:20 PM61 °FBroken clouds.1 mph77%29.95 "HgN/A
12:20 PM57 °FBroken clouds.2 mph82%29.98 "HgN/A
11:20 AM55 °FPartly sunny.2 mph82%29.98 "HgN/A
10:20 AM54 °FPartly sunny.2 mph82%29.98 "HgN/A
9:20 AM48 °FFog.2 mph94%29.95 "Hg3 mi
8:20 AM46 °FFog.1 mph93%29.95 "Hg4 mi
7:20 AM45 °FFog.1 mph93%29.95 "Hg3 mi
6:20 AM46 °FFog.1 mph100%29.95 "Hg3 mi
5:20 AM46 °FPassing clouds.5 mph93%29.95 "Hg4 mi
5:02 AM46 °FFog.6 mph93%29.95 "Hg3 mi
4:20 AM46 °FFog.6 mph100%29.95 "Hg2 mi
3:20 AM46 °FFog.5 mph93%29.92 "Hg2 mi
2:20 AM46 °FFog.2 mph93%29.92 "Hg2 mi
1:20 AM46 °FFog.2 mph93%29.92 "Hg1 mi
12:20 AM46 °FLight rain. Fog.2 mph93%29.92 "Hg1 mi
11:20 PM
Sun, Oct 23
46 °FLight rain. Fog.1 mph93%29.92 "Hg1 mi
10:20 PM46 °FFog.1 mph93%29.89 "Hg2 mi
9:20 PM46 °FLight rain. Fog.1 mph93%29.92 "Hg2 mi
8:20 PM45 °FLight rain. Fog.2 mph100%29.92 "Hg2 mi
Weather by CustomWeather, © 2016

See weather overviewHow to use our weather pages